De Queen, AR

9:02 AM CDT on August 27, 2016 (GMT -0500)
Helms Sevier County

Weather History for KDEQ - July, 2014

Change the Weather History Date:

Thursday, July 3, 2014

  Actual Average Record
Temperature  
Mean Temperature 75 °F 81 °F  
Max Temperature 85 °F 92 °F 102 °F (1980)
Min Temperature 65 °F 70 °F 59 °F (1945)
Degree Days  
Heating Degree Days 0 0  
Month to date heating degree days 0 0  
Since 1 June heating degree days 0 0  
Since 1 July heating degree days 0 0  
Cooling Degree Days 10 16  
Month to date cooling degree days 39 47  
Year to date cooling degree days 568 642  
Since 1 June cooling degree days 361 425  
Growing Degree Days 25 (Base 50)    
Moisture  
Dew Point 65 °F    
Average Humidity 73    
Maximum Humidity 97    
Minimum Humidity 48    
Precipitation  
Precipitation 0.00 in 0.14 in 1.74 in (1972)
Month to date precipitation 1.02 0.45  
Year to date precipitation 17.43 26.09  
Snow  
Snow 0.00 in - - ()
Month to date snowfall 0.0  
Since 1 June snowfall 0.0  
Since 1 July snowfall 0.0  
Snow Depth 0.00 in    
Sea Level Pressure  
Sea Level Pressure 30.11 in    
Wind  
Wind Speed 3 mph (ESE)    
Max Wind Speed 9 mph    
Max Gust Speed 14 mph    
Visibility 10 miles    
Events      
T = Trace of Precipitation, MM = Missing Value Source: NWS Daily Summary

Daily Weather History Graph

Daily Weather History Graph

Search for Another Location

Airport or City:

Trip Planner

Search our weather history database for the weather conditions in past years. The results will help you decide how hot, cold, wet, or windy it might be!

Date:

Astronomy

Jul. 03, 2014 Rise Set
Actual Time 6:10 AM CDT 8:32 PM CDT
Civil Twilight 5:41 AM CDT 9:01 PM CDT
Nautical Twilight 5:05 AM CDT 9:37 PM CDT
Astronomical Twilight 4:26 AM CDT 10:16 PM CDT
Moon 11:53 AM CDT (7/3) No Moon Set
Length of Visible Light 15h 20m
Length of Day
14h 22m
Waxing Crescent, 33% of the Moon is Illuminated
Jul 3
Waxing Crescent
Jul 5
First Quarter
Jul 12
Full
Jul 18
Last Quarter
Jul 26
New

Hourly Weather History & Observations

Time (CDT) Temp. Heat Index Dew Point Humidity Pressure Visibility Wind Dir Wind Speed Gust Speed Precip Events Conditions
12:02 AM 72.0 °F - 71.1 °F 97% 30.09 in 2.0 mi Calm Calm - N/A   Clear
12:09 AM 72.0 °F - 71.1 °F 97% 30.09 in 10.0 mi Calm Calm - N/A   Clear
12:53 AM 72.0 °F - 68.0 °F 87% 30.07 in 10.0 mi Calm Calm - N/A   Clear
1:53 AM 70.0 °F - 68.0 °F 93% 30.06 in 10.0 mi Calm Calm - N/A   Clear
2:53 AM 71.1 °F - 64.9 °F 81% 30.05 in 10.0 mi Calm Calm - N/A   Clear
3:53 AM 69.1 °F - 64.0 °F 84% 30.06 in 10.0 mi Calm Calm - N/A   Clear
4:53 AM 66.9 °F - 64.9 °F 93% 30.07 in 10.0 mi Calm Calm - N/A   Clear
5:53 AM 68.0 °F - 61.0 °F 78% 30.08 in 10.0 mi East 3.5 mph - N/A   Clear
6:53 AM 66.9 °F - 61.0 °F 81% 30.11 in 10.0 mi East 4.6 mph - N/A   Clear
7:53 AM 71.1 °F - 62.1 °F 73% 30.12 in 10.0 mi East 3.5 mph - N/A   Clear
9:53 AM 75.9 °F - 59.0 °F 56% 30.16 in 10.0 mi ENE 5.8 mph - N/A   Clear
10:34 AM 77.0 °F - 59.0 °F 54% 30.17 in 10.0 mi Variable 3.5 mph - N/A   Partly Cloudy
10:53 AM 79.0 °F - 61.0 °F 54% 30.16 in 10.0 mi East 4.6 mph - N/A   Partly Cloudy
11:53 AM 80.1 °F 80.9 °F 60.1 °F 50% 30.16 in 10.0 mi East 4.6 mph - N/A   Clear
12:53 PM 81.0 °F 81.9 °F 62.1 °F 52% 30.15 in 10.0 mi ENE 5.8 mph - N/A   Clear
2:53 PM 84.0 °F 84.9 °F 63.0 °F 49% 30.12 in 10.0 mi West 3.5 mph - N/A   Clear
3:53 PM 84.0 °F 86.3 °F 66.0 °F 55% 30.11 in 10.0 mi South 6.9 mph - N/A   Clear
4:53 PM 84.0 °F 86.3 °F 66.0 °F 55% 30.09 in 10.0 mi Calm Calm - N/A   Clear
5:53 PM 84.0 °F 86.5 °F 66.9 °F 56% 30.08 in 10.0 mi SSE 4.6 mph - N/A   Clear
7:53 PM 80.1 °F 82.7 °F 68.0 °F 67% 30.08 in 10.0 mi SSW 3.5 mph - N/A   Clear
8:53 PM 75.0 °F - 69.1 °F 82% 30.11 in 10.0 mi Calm Calm - N/A   Clear
9:53 PM 72.0 °F - 70.0 °F 93% 30.13 in 10.0 mi Calm Calm - N/A   Clear
10:53 PM 70.0 °F - 68.0 °F 93% 30.14 in 9.0 mi East 4.6 mph - N/A   Clear
11:53 PM 69.1 °F - 68.0 °F 96% 30.15 in 7.0 mi Calm Calm - N/A   Clear